DW5164 Weather Reports


Display with metric or nautical units.
time (UTC)temp
F
wind
direction
speed
MPH
gust
MPH
rain 1hr
in
rain 24hr
in
rain mn
in
humidity
%
barometer
mb
20260509084048 71 246 1.0 3.0 0.00 0.00 0.00 68 1016.7
20260509083548 70 73 1.0 3.0 0.00 0.00 0.00 73 1016.6
20260509083048 70 62 1.0 3.0 0.00 0.00 0.00 73 1016.7
20260509082547 69 330 1.0 3.0 0.00 0.00 0.00 72 1016.7
20260509080547 68 264 1.0 5.0 0.00 0.00 0.00 75 1016.8
20260509074548 67 77 0.0 3.0 0.00 0.00 0.00 76 1016.8
20260509074047 66 63 1.0 3.0 0.00 0.00 0.00 77 1016.8
20260509073047 66 328 1.0 2.0 0.00 0.00 0.00 82 1016.9
20260509072548 65 198 1.0 2.0 0.00 0.00 0.00 81 1016.8
20260509072047 65 14 1.0 2.0 0.00 0.00 0.00 82 1016.9
20260509071548 65 332 2.0 2.0 0.00 0.00 0.00 83 1016.9
20260509071049 65 355 0.0 2.0 0.00 0.00 0.00 83 1016.9
20260509070548 64 355 1.0 2.0 0.00 0.00 0.00 84 1016.9
20260509065547 63 76 2.0 3.0 0.00 0.00 0.00 84 1016.8
20260509065047 63 93 2.0 3.0 0.00 0.00 0.00 85 1016.8
20260509063048 61 332 0.0 1.0 0.00 0.00 0.00 88 1016.7
20260509062048 60 314 0.0 1.0 0.00 0.00 0.00 91 1016.7
20260509061548 60 307 0.0 1.0 0.00 0.00 0.00 92 1016.7
20260509060549 59 242 0.0 0.0 0.00 0.00 0.00 94 1016.7
20260509060047 58 264 0.0 2.0 0.00 0.00 0.00 94 1016.6
20260509055604 58 270 2.0 3.0 0.00 0.00 0.00 95 1016.7
20260509054547 57 249 0.0 1.0 0.00 0.00 0.00 95 1016.6
20260509054048 56 246 2.0 3.0 0.00 0.00 0.00 96 1016.6
20260509053047 56 311 1.0 2.0 0.00 0.00 0.00 96 1016.6
20260509052548 56 261 1.0 1.0 0.00 0.00 0.00 96 1016.5
20260509052048 55 262 0.0 1.0 0.00 0.00 0.00 97 1016.4
20260509051049 55 232 0.0 1.0 0.00 0.00 0.00 97 1016.3
20260509045547 54 232 0.0 1.0 0.00 0.00 0.00 97 1016.2
20260509045050 53 232 1.0 3.0 0.00 0.00 0.00 96 1016.2
20260509044047 54 285 1.0 2.0 0.00 0.00 0.00 97 1016.1
20260509043547 54 285 0.0 0.0 0.00 0.00 0.00 97 1016.0
20260509042547 54 313 0.0 1.0 0.00 0.00 0.00 96 1016.1
20260509042047 54 313 0.0 1.0 0.00 0.00 0.00 97 1016.0
20260509041549 54 227 0.0 2.0 0.00 0.00 0.00 97 1016.1
20260509041046 53 214 1.0 3.0 0.00 0.00 0.00 96 1016.1
20260509040547 53 213 2.0 3.0 0.00 0.00 0.00 96 1016.1
20260509040047 53 219 1.0 2.0 0.00 0.00 0.00 96 1016.1
20260509035048 53 217 2.0 3.0 0.00 0.00 0.00 96 1016.0
20260509034547 53 77 1.0 2.0 0.00 0.00 0.00 96 1016.0
20260509034047 54 42 1.0 2.0 0.00 0.00 0.00 96 1015.9
20260509033547 54 49 1.0 2.0 0.00 0.00 0.00 96 1015.9
20260509033047 54 49 0.0 0.0 0.00 0.00 0.00 96 1015.9
20260509032048 54 59 1.0 1.0 0.00 0.00 0.00 96 1015.7
20260509031547 55 59 1.0 3.0 0.00 0.00 0.00 96 1015.7
20260509031046 55 72 1.0 3.0 0.00 0.00 0.00 96 1015.7
20260509030547 55 80 2.0 3.0 0.00 0.00 0.00 96 1015.7
20260509030046 55 80 2.0 2.0 0.00 0.00 0.00 96 1015.7
20260509025547 55 80 0.0 2.0 0.00 0.00 0.00 96 1015.8
20260509025047 55 80 0.0 2.0 0.00 0.00 0.00 96 1015.8
20260509024549 55 80 1.0 2.0 0.00 0.00 0.00 96 1015.9
20260509024047 55 80 0.0 1.0 0.00 0.00 0.00 96 1015.9
20260509023546 55 80 2.0 3.0 0.00 0.00 0.00 96 1015.9
20260509023048 55 80 0.0 0.0 0.00 0.00 0.00 96 1015.9
20260509022547 55 80 0.0 0.0 0.00 0.00 0.00 96 1015.9
20260509022102 55 80 0.0 0.0 0.00 0.00 0.00 96 1016.0
20260509021547 55 80 0.0 0.0 0.00 0.00 0.00 96 1016.0
20260509021047 55 80 0.0 0.0 0.00 0.00 0.00 96 1016.0
20260509020547 55 80 0.0 0.0 0.00 0.00 0.00 96 1016.0
20260509020047 55 80 0.0 0.0 0.00 0.00 0.00 95 1016.0
20260509015547 55 80 0.0 0.0 0.00 0.00 0.00 95 1016.0
20260509014549 55 80 0.0 0.0 0.00 0.00 0.00 95 1015.9
20260509014046 55 80 0.0 0.0 0.00 0.00 0.00 95 1015.9
20260509013046 56 80 0.0 0.0 0.00 0.00 0.00 95 1015.9
20260509012549 56 80 0.0 0.0 0.00 0.00 0.00 95 1015.9
20260509011546 56 80 0.0 0.0 0.00 0.00 0.00 95 1015.8
20260509011047 56 80 0.0 0.0 0.00 0.00 0.00 95 1015.8
20260509010547 56 80 0.0 1.0 0.00 0.00 0.00 95 1015.8
20260509010046 56 80 0.0 1.0 0.00 0.00 0.00 95 1015.8
20260509005547 56 80 1.0 2.0 0.00 0.00 0.00 95 1015.9
20260509005047 56 80 0.0 1.0 0.00 0.00 0.00 94 1015.8
20260509004047 56 80 0.0 0.0 0.00 0.00 0.00 94 1015.8
20260509003547 56 80 1.0 2.0 0.00 0.00 0.00 94 1015.8
20260509003046 56 80 0.0 0.0 0.00 0.00 0.00 94 1015.8
20260509002548 56 80 0.0 0.0 0.00 0.00 0.00 94 1015.8
20260509002049 56 80 0.0 1.0 0.00 0.00 0.00 94 1015.8
20260509001546 56 80 0.0 1.0 0.00 0.00 0.00 94 1015.8
20260509001046 56 80 0.0 2.0 0.00 0.00 0.00 93 1015.7
20260509000047 57 141 1.0 3.0 0.00 0.00 0.00 92 1015.6
20260508235546 57 141 2.0 2.0 0.00 0.00 0.00 92 1015.5
20260508234546 58 184 0.0 0.0 0.00 0.00 0.00 92 1015.5
20260508234047 58 184 0.0 0.0 0.00 0.00 0.00 92 1015.4
20260508233549 58 184 0.0 0.0 0.00 0.00 0.00 91 1015.4
20260508233046 58 184 0.0 0.0 0.00 0.00 0.00 92 1015.5
20260508231546 58 184 0.0 0.0 0.00 0.00 0.00 91 1015.5
20260508231049 58 184 0.0 0.0 0.00 0.00 0.00 91 1015.5
20260508230549 58 184 0.0 0.0 0.00 0.00 0.00 91 1015.5
20260508230046 58 184 0.0 0.0 0.00 0.00 0.00 91 1015.5
20260508225046 58 184 0.0 0.0 0.00 0.00 0.00 91 1015.5
20260508223602 59 184 0.0 0.0 0.00 0.00 0.00 91 1015.5
20260508222546 59 184 0.0 0.0 0.00 0.00 0.00 90 1015.5
20260508222046 59 184 0.0 0.0 0.00 0.00 0.00 90 1015.5
20260508221557 59 184 0.0 0.0 0.00 0.00 0.00 89 1015.6
20260508220546 60 184 0.0 0.0 0.00 0.00 0.00 88 1015.6
20260508215546 60 184 0.0 0.0 0.00 0.00 0.00 88 1015.6
20260508214045 60 184 0.0 0.0 0.00 0.00 0.00 87 1015.5
20260508213553 61 184 0.0 0.0 0.00 0.00 0.00 87 1015.4
20260508213046 61 184 0.0 0.0 0.00 0.00 0.00 86 1015.5
20260508212547 61 184 0.0 0.0 0.00 0.00 0.00 86 1015.5
20260508211545 61 184 0.0 0.0 0.00 0.00 0.00 85 1015.5
20260508211046 62 184 0.0 0.0 0.00 0.00 0.00 85 1015.5
20260508210047 62 184 0.0 0.0 0.00 0.00 0.00 84 1015.5
20260508205546 62 184 0.0 0.0 0.00 0.00 0.00 84 1015.5
20260508205045 62 184 0.0 0.0 0.00 0.00 0.00 83 1015.5
20260508204546 63 184 0.0 0.0 0.00 0.00 0.00 83 1015.4
20260508204051 63 184 0.0 2.0 0.00 0.00 0.00 82 1015.4
20260508203546 63 181 1.0 2.0 0.00 0.00 0.00 82 1015.4
20260508203046 64 182 1.0 2.0 0.00 0.00 0.00 81 1015.4
20260508202045 65 182 2.0 3.0 0.00 0.00 0.00 79 1015.3
20260508201545 65 180 3.0 3.0 0.00 0.00 0.00 79 1015.3
20260508201048 65 177 2.0 3.0 0.00 0.00 0.00 79 1015.3
20260508200545 64 186 3.0 5.0 0.00 0.00 0.00 80 1015.3
20260508195600 63 173 2.0 3.0 0.00 0.00 0.00 83 1015.2
20260508195045 63 118 1.0 2.0 0.00 0.00 0.00 82 1015.1
20260508194545 63 118 1.0 2.0 0.00 0.00 0.00 82 1015.1
20260508194045 64 118 1.0 2.0 0.00 0.00 0.00 82 1015.0
20260508193545 64 118 1.0 2.0 0.00 0.00 0.00 81 1015.0
20260508193051 64 118 1.0 2.0 0.00 0.00 0.00 81 1014.9
20260508192545 64 118 1.0 2.0 0.00 0.00 0.00 81 1014.8
20260508192045 64 118 2.0 3.0 0.00 0.00 0.00 80 1014.8
20260508191545 65 118 2.0 3.0 0.00 0.00 0.00 80 1014.7
20260508191051 65 121 2.0 3.0 0.00 0.00 0.00 80 1014.5
20260508190546 65 125 2.0 3.0 0.00 0.00 0.00 80 1014.5
20260508190046 65 125 2.0 3.0 0.00 0.00 0.00 79 1014.4
20260508185545 65 120 2.0 3.0 0.00 0.00 0.00 80 1014.4
20260508185053 65 133 1.0 2.0 0.00 0.00 0.00 79 1014.3
20260508184546 65 121 1.0 1.0 0.00 0.00 0.00 79 1014.3
20260508184045 66 121 1.0 3.0 0.00 0.00 0.00 77 1014.2
20260508183545 66 121 3.0 5.0 0.00 0.00 0.00 76 1014.2
20260508183046 67 76 0.0 0.0 0.00 0.00 0.00 76 1014.1
20260508182545 67 78 0.0 0.0 0.00 0.00 0.00 75 1014.0
20260508181545 68 85 0.0 0.0 0.00 0.00 0.00 75 1013.9
20260508181045 68 85 0.0 0.0 0.00 0.00 0.00 75 1013.9
20260508180546 68 85 0.0 0.0 0.00 0.00 0.00 74 1013.9
20260508175546 69 92 0.0 0.0 0.00 0.00 0.00 72 1013.8
20260508175045 69 91 0.0 1.0 0.00 0.00 0.00 72 1013.8
20260508174545 69 74 0.0 1.0 0.00 0.00 0.00 71 1013.7
20260508173545 70 74 0.0 1.0 0.00 0.00 0.00 70 1013.7
20260508173045 70 76 2.0 2.0 0.00 0.00 0.00 70 1013.6
20260508172553 70 100 2.0 3.0 0.00 0.00 0.00 70 1013.6
20260508172045 70 100 2.0 3.0 0.00 0.00 0.00 70 1013.6
20260508171545 70 111 0.0 1.0 0.00 0.00 0.00 70 1013.6
20260508170546 71 111 0.0 0.0 0.00 0.00 0.00 64 1013.5
20260508170045 71 111 0.0 0.0 0.00 0.00 0.00 66 1013.6
20260508165600 71 111 0.0 1.0 0.00 0.00 0.00 65 1013.6
20260508165045 71 111 1.0 2.0 0.00 0.00 0.00 64 1013.6
20260508164045 72 132 1.0 2.0 0.00 0.00 0.00 64 1013.6
20260508163545 72 116 2.0 3.0 0.00 0.00 0.00 64 1013.6
20260508163101 72 87 1.0 3.0 0.00 0.00 0.00 65 1013.6
20260508162545 72 87 1.0 3.0 0.00 0.00 0.00 65 1013.6
20260508162045 71 87 2.0 2.0 0.00 0.00 0.00 65 1013.6
20260508161547 71 92 2.0 3.0 0.00 0.00 0.00 65 1013.6
20260508160045 72 94 2.0 3.0 0.00 0.00 0.00 65 1013.5
20260508155548 72 105 2.0 3.0 0.00 0.00 0.00 66 1013.5
20260508155045 71 114 1.0 3.0 0.00 0.00 0.00 66 1013.4
20260508154548 72 130 2.0 3.0 0.00 0.00 0.00 66 1013.4
20260508154045 71 127 4.0 5.0 0.00 0.00 0.00 67 1013.4
20260508153544 71 119 2.0 5.0 0.00 0.00 0.00 67 1013.4
20260508152549 72 92 2.0 3.0 0.00 0.00 0.00 65 1013.4
20260508152044 72 5 2.0 3.0 0.00 0.00 0.00 64 1013.4
20260508151544 72 75 2.0 5.0 0.00 0.00 0.00 63 1013.4
20260508150545 74 5 2.0 3.0 0.00 0.00 0.00 63 1013.4
20260508150044 73 92 3.0 6.0 0.00 0.00 0.00 62 1013.5
20260508145545 73 43 3.0 5.0 0.00 0.00 0.00 63 1013.6
20260508145046 73 96 3.0 6.0 0.00 0.00 0.00 62 1013.7
20260508144545 73 89 5.0 7.0 0.00 0.00 0.00 62 1013.7
20260508143045 73 209 2.0 3.0 0.00 0.00 0.00 64 1013.9
20260508142045 73 265 2.0 3.0 0.00 0.00 0.00 64 1013.9
20260508141544 73 46 0.0 1.0 0.00 0.00 0.00 62 1013.9
20260508141044 73 46 3.0 6.0 0.00 0.00 0.00 63 1013.9
20260508140544 74 51 3.0 7.0 0.00 0.00 0.00 64 1013.9
20260508140045 74 69 3.0 5.0 0.00 0.00 0.00 63 1014.0
20260508135600 73 83 2.0 5.0 0.00 0.00 0.00 66 1014.0
20260508135045 73 82 4.0 7.0 0.00 0.00 0.00 65 1014.1
20260508134544 72 57 2.0 6.0 0.00 0.00 0.00 65 1014.1
20260508134044 72 41 1.0 5.0 0.00 0.00 0.00 65 1014.2
20260508133045 72 230 2.0 5.0 0.00 0.00 0.00 65 1014.3
20260508132544 72 183 2.0 3.0 0.00 0.00 0.00 64 1014.4
20260508132044 72 179 2.0 3.0 0.00 0.00 0.00 64 1014.4
20260508131544 72 114 2.0 5.0 0.00 0.00 0.00 67 1014.5
20260508131046 72 104 2.0 7.0 0.00 0.00 0.00 65 1014.5
20260508125544 71 132 3.0 6.0 0.00 0.00 0.00 65 1014.5
20260508125044 71 84 3.0 6.0 0.00 0.00 0.00 66 1014.6
20260508124049 71 131 2.0 5.0 0.00 0.00 0.00 67 1014.6
20260508123545 71 278 1.0 6.0 0.00 0.00 0.00 69 1014.5
20260508123044 71 90 2.0 3.0 0.00 0.00 0.00 69 1014.6
20260508121045 71 42 3.0 5.0 0.00 0.00 0.00 72 1014.6
20260508120059 70 64 3.0 5.0 0.00 0.00 0.00 72 1014.7
20260508115044 70 89 3.0 7.0 0.00 0.00 0.00 72 1014.7
20260508114544 70 55 5.0 9.0 0.00 0.00 0.00 71 1014.8
20260508114044 70 58 4.0 7.0 0.00 0.00 0.00 72 1014.7
20260508113543 70 40 3.0 5.0 0.00 0.00 0.00 72 1014.8
20260508112544 70 177 2.0 8.0 0.00 0.00 0.00 73 1014.8
20260508112044 70 113 3.0 8.0 0.00 0.00 0.00 73 1014.9
20260508111600 69 45 1.0 5.0 0.00 0.00 0.00 73 1014.9
20260508110544 69 120 3.0 7.0 0.00 0.00 0.00 73 1015.0
20260508110044 69 78 6.0 8.0 0.00 0.00 0.00 73 1015.0
20260508105547 69 84 3.0 6.0 0.00 0.00 0.00 75 1015.1
20260508105051 69 70 1.0 2.0 0.00 0.00 0.00 75 1015.2
20260508104543 69 54 3.0 5.0 0.00 0.00 0.00 75 1015.2
20260508104043 69 77 5.0 7.0 0.00 0.00 0.00 76 1015.2
20260508103545 69 118 3.0 6.0 0.00 0.00 0.00 76 1015.3
20260508103045 69 106 5.0 5.0 0.00 0.00 0.00 76 1015.3
20260508102543 68 55 4.0 5.0 0.00 0.00 0.00 75 1015.3
20260508102045 68 146 3.0 5.0 0.00 0.00 0.00 74 1015.3
20260508101544 68 62 2.0 6.0 0.00 0.00 0.00 75 1015.3
20260508101044 68 89 3.0 6.0 0.00 0.00 0.00 75 1015.3
20260508100545 68 80 2.0 3.0 0.00 0.00 0.00 76 1015.3
20260508100049 69 98 4.0 9.0 0.00 0.00 0.00 75 1015.4
20260508095543 69 109 7.0 14.0 0.00 0.00 0.00 73 1015.4
20260508095044 68 70 3.0 9.0 0.00 0.00 0.00 73 1015.4
20260508094544 69 78 5.0 12.0 0.00 0.00 0.00 72 1015.5
20260508094045 69 111 3.0 5.0 0.00 0.00 0.00 74 1015.5
20260508093543 69 115 6.0 9.0 0.00 0.00 0.00 74 1015.5
20260508093045 69 91 5.0 9.0 0.00 0.00 0.00 75 1015.6
20260508092544 68 122 7.0 12.0 0.00 0.00 0.00 74 1015.6
20260508092043 68 80 9.0 13.0 0.00 0.00 0.00 75 1015.6
20260508091545 68 112 8.0 13.0 0.00 0.00 0.00 75 1015.6
20260508090051 68 84 7.0 10.0 0.00 0.00 0.00 77 1015.4
20260508085544 67 83 4.0 8.0 0.00 0.00 0.00 80 1015.3
20260508085043 67 113 7.0 10.0 0.00 0.00 0.00 79 1015.4